DMC3-FM3

Last updated on Sun Apr 12 2026 00:02:42 GMT+0000 (Coordinated Universal Time)

1 40717U 15032C 26101.57436324 .00000039 00000+0 10396-4 0 9998 2 40717 97.6664 332.5668 0003873 284.8260 75.2526 14.85667291580024
UTC large
Height (km)
Speed (km/s)
/
Latitude / Longitude
Inclination (degrees)
Orbital Period (minutes)
Azimuth
Elevation
Range (km)
Doppler Factor

Next 0 passes for location: London (51.5072 / 0.1276)

Sorry there are no passes over London.
DMC3-FM3